CZ-6A DEB, 55220

Orbit data source: Space-Track

CZ-6A DEB, 55220 is space debris in SSO originally from a launch on Fri, 11 Nov 2022 UTC launched from the Taiyaun Space Center, China (TSC). Debris objects in space refer to the collection of defunct objects orbiting the Earth. Examples of debris include non-operational satellites, rocket bodies, and fragments generated from explosions, collisions, or faulty payload assembly.

Loading next visibility...
Identifier
55220, 2022-151WM
Orbit
SSO
Country
Flag of CNCN / PRC
Related business
Manufacturer
SAST
Mission
Spacecraft
Bus & Motor
Unknown
Mass
Unknown
Launch date (UTC)
2022-11-11 (3 years ago)
Launch vehicle
Unknown
Launch site
Taiyaun Space Center, China (TSC)
Object type
Payload
Rocket body
Debris
Shape & HBR
Unknown shape, 0.1 m
Radar Cross Section
Small (<0.1 m²)

Expand to show TLE details & history
Last TLE update: 23 hours ago

TLE from 23 hours ago
0 CZ-6A DEB
1 55220U 22151WM  25348.83044549  .00000877  00000-0  32843-3 0  9999
2 55220  98.7353  20.4296 0089423 135.3079 225.5356 14.32045524155816
Epoch: 2025-12-14T19:55Z
TLE epoch observation values (Epoch: 2025-12-14T19:55:50.490Z)
Latitude
-0.00001°
Longitude
-2.26851°
Altitude
832.998 km
Speed
7.413 km/s
True Right ascension
01h 21m 43s
True Declination
0° 00' 00"
Sunlit
Object was in daylight at epoch
Visualization orbit readout
Latitude
Unknown
Longitude
Unknown
Altitude
Unknown
Speed
Unknown
Apparent Right ascension
Unknown
Apparent Declination
Unknown
Sunlit
N/A
Visualization observer readout
Local Sidereal Time
17:05:14
Azimuth
Unknown
Elevation
Unknown
Doppler factor
Unknown
Orbital elements
Apogee altitude
846.074 km
Perigee altitude
718.017 km
Semi-major axis
7,160.182 km
Eccentricity
0.00894
Inclination
98.7353°
RAAN
20.4296°
Arg. of periapsis
135.3079°
True anomaly
224.80998°
Mean anomaly
225.5356°
Eccentric anomaly
225.17222°
Mean motion
3.58226 °/min
Orbital period
100.5 mins
BSTAR
0.00032843
Loading maneuver chart data...
Computing Atmospheric mass density...
Loading historical data...
Loading historical data...
Loading historical data...
Loading historical data...
Loading historical data...
Loading historical data...
Loading historical data...

Documentation

Showing up to 5 results
|